EA1IDU Weather Reports


Display with metric or nautical units.
time (UTC)temp
F
wind
direction
speed
MPH
gust
MPH
rain 1hr
in
rain 24hr
in
rain mn
in
humidity
%
barometer
mb
20260902234525 0 270 5.0 8.0 0.00 0.00 0.00 1 1027.5
20260902233520 0 270 5.0 9.0 0.00 0.00 0.00 1 1027.4
20260902232635 0 270 6.0 11.0 0.00 0.00 0.00 1 1027.3
20260902231609 0 270 6.0 11.0 0.00 0.00 0.00 1 1027.4
20260902230624 0 270 6.0 11.0 0.00 0.00 0.00 1 1027.4
20260902225600 0 270 8.0 13.0 0.00 0.00 0.00 1 1027.2
20260902224554 0 270 11.0 15.0 0.00 0.00 0.00 1 1027.2
20260902223549 0 270 9.0 16.0 0.00 0.00 0.00 1 1027.2
20260902222544 0 270 7.0 13.0 0.00 0.00 0.00 1 1027.2
20260902221539 0 270 11.0 16.0 0.00 0.00 0.00 1 1027.2
20260902220554 0 270 9.0 15.0 0.00 0.00 0.00 1 1027.2
20260902215528 0 270 9.0 17.0 0.00 0.00 0.00 1 1027.2
20260902214522 0 270 10.0 15.0 0.00 0.00 0.00 1 1027.3
20260902213517 0 270 6.0 11.0 0.00 0.00 0.00 1 1027.2
20260902212612 0 270 6.0 11.0 0.00 0.00 0.00 1 1027.1
20260902211608 0 270 5.0 8.0 0.00 0.00 0.00 1 1027.0
20260902210602 0 270 5.0 8.0 0.00 0.00 0.00 1 1027.0
20260902205557 0 270 8.0 15.0 0.00 0.00 0.00 1 1026.9
20260902204612 0 270 11.0 17.0 0.00 0.00 0.00 1 1026.9
20260902203546 0 270 12.0 15.0 0.00 0.00 0.00 1 1026.8
20260902202600 0 270 8.0 13.0 0.00 0.00 0.00 1 1026.8
20260902201556 0 270 9.0 14.0 0.00 0.00 0.00 1 1026.6
20260902200531 0 270 9.0 15.0 0.00 0.00 0.00 1 1026.6
20260902195525 0 270 9.0 15.0 0.00 0.00 0.00 1 1026.4
20260902194541 0 270 7.0 11.0 0.00 0.00 0.00 1 1026.3
20260902193615 0 270 7.0 13.0 0.00 0.00 0.00 1 1026.2
20260902192609 0 270 6.0 16.0 0.00 0.00 0.00 1 1026.0
20260902191604 0 270 9.0 16.0 0.00 0.00 0.00 1 1025.8
20260902190559 0 270 8.0 14.0 0.00 0.00 0.00 1 1025.6
20260902185555 0 270 11.0 18.0 0.00 0.00 0.00 1 1025.4
20260902184548 0 293 10.0 16.0 0.00 0.00 0.00 1 1025.2
20260902183603 0 293 1.0 4.0 0.00 0.00 0.00 1 1024.9
20260902182538 0 273 2.0 4.0 0.00 0.00 0.00 1 1024.8
20260902181533 0 267 2.0 4.0 0.00 0.00 0.00 1 1024.8
20260902180527 0 248 2.0 4.0 0.00 0.00 0.00 1 1024.8
20260902175522 0 265 2.0 4.0 0.00 0.00 0.00 1 1024.8
20260902174536 0 254 4.0 6.0 0.00 0.00 0.00 1 1024.8
20260902173611 0 248 3.0 4.0 0.00 0.00 0.00 1 1024.7
20260902172626 0 259 2.0 6.0 0.00 0.00 0.00 1 1024.7
20260902171601 0 221 4.0 7.0 0.00 0.00 0.00 1 1024.6
20260902170556 0 214 1.0 4.0 0.00 0.00 0.00 1 1024.6
20260902165550 0 211 3.0 4.0 0.00 0.00 0.00 1 1024.6
20260902164546 0 247 1.0 4.0 0.00 0.00 0.00 1 1024.6
20260902163542 0 248 1.0 4.0 0.00 0.00 0.00 1 1024.7
20260902162535 0 258 2.0 6.0 0.00 0.00 0.00 1 1024.7
20260902161530 0 268 1.0 4.0 0.00 0.00 0.00 1 1024.7
20260902160525 0 255 2.0 4.0 0.00 0.00 0.00 1 1024.8
20260902155521 0 257 3.0 7.0 0.00 0.00 0.00 1 1024.8
20260902154616 0 221 1.0 4.0 0.00 0.00 0.00 1 1024.9
20260902153610 0 216 1.0 4.0 0.00 0.00 0.00 1 1024.7
20260902152604 0 220 3.0 6.0 0.00 0.00 0.00 1 1024.8
20260902151559 0 214 3.0 6.0 0.00 0.00 0.00 1 1025.0
20260902150554 0 225 1.0 4.0 0.00 0.00 0.00 1 1025.0
20260902145550 0 221 1.0 2.0 0.00 0.00 0.00 1 1025.1
20260902144544 0 237 4.0 9.0 0.00 0.00 0.00 1 1025.0
20260902143538 0 223 2.0 6.0 0.00 0.00 0.00 1 1025.1
20260902142533 0 208 4.0 7.0 0.00 0.00 0.00 1 1025.1
20260902141528 0 251 3.0 8.0 0.00 0.00 0.00 1 1025.2
20260902140522 0 219 4.0 8.0 0.00 0.00 0.00 1 1025.2
20260902135517 0 244 5.0 8.0 0.00 0.00 0.00 1 1025.4
20260902134612 0 248 5.0 9.0 0.00 0.00 0.00 1 1025.4
20260902133607 0 243 0.0 2.0 0.00 0.00 0.00 1 1025.5
20260902132602 0 248 4.0 7.0 0.00 0.00 0.00 1 1025.5
20260902131556 0 206 1.0 4.0 0.00 0.00 0.00 1 1025.5
20260902130551 0 268 4.0 8.0 0.00 0.00 0.00 1 1025.5
20260902125547 0 242 3.0 8.0 0.00 0.00 0.00 1 1025.5
20260902124600 0 270 2.0 4.0 0.00 0.00 0.00 1 1025.5
20260902123534 0 255 1.0 4.0 0.00 0.00 0.00 1 1025.7
20260902122529 0 262 4.0 7.0 0.00 0.00 0.00 1 1025.7
20260902121524 0 260 5.0 7.0 0.00 0.00 0.00 1 1025.9
20260902120519 0 270 2.0 2.0 0.00 0.00 0.00 1 1025.8
20260902115614 0 248 2.0 4.0 0.00 0.00 0.00 1 1025.9
20260902114609 0 262 4.0 6.0 0.00 0.00 0.00 1 1025.8
20260902113603 0 265 3.0 4.0 0.00 0.00 0.00 1 1026.0
20260902112701 0 248 1.0 4.0 0.00 0.00 0.00 1 1026.0
20260902111553 0 258 2.0 4.0 0.00 0.00 0.00 1 1026.2
20260902110548 0 270 1.0 4.0 0.00 0.00 0.00 1 1026.3
20260902105603 0 267 1.0 2.0 0.00 0.00 0.00 1 1026.2
20260902104537 0 266 2.0 4.0 0.00 0.00 0.00 1 1026.2
20260902103532 0 266 1.0 4.0 0.00 0.00 0.00 1 1026.4
20260902102527 0 270 0.0 2.0 0.00 0.00 0.00 1 1026.4
20260902101522 0 270 1.0 2.0 0.00 0.00 0.00 1 1026.5
20260902100517 0 270 1.0 2.0 0.00 0.00 0.00 1 1026.6
20260902095613 0 270 0.0 2.0 0.00 0.00 0.00 1 1026.5
20260902094608 0 0.0 0.0 0.00 0.00 0.00 1 1026.5
20260902093601 0 270 0.0 2.0 0.00 0.00 0.00 1 1026.4
20260902092556 0 270 1.0 4.0 0.00 0.00 0.00 1 1026.4
20260902091551 0 270 0.0 2.0 0.00 0.00 0.00 1 1026.4
20260902090545 0 270 0.0 2.0 0.00 0.00 0.00 1 1026.3
20260902085540 0 270 2.0 4.0 0.00 0.00 0.00 1 1026.2
20260902084535 0 270 3.0 6.0 0.00 0.00 0.00 1 1026.3
20260902083530 0 270 2.0 6.0 0.00 0.00 0.00 1 1026.1
20260902082525 0 270 6.0 8.0 0.00 0.00 0.00 1 1026.2
20260902081520 0 270 6.0 9.0 0.00 0.00 0.00 1 1026.2
20260902080616 0 270 4.0 7.0 0.00 0.00 0.00 1 1026.1
20260902075630 0 270 4.0 6.0 0.00 0.00 0.00 1 1026.0
20260902074604 0 270 3.0 6.0 0.00 0.00 0.00 1 1025.9
20260902073559 0 270 4.0 7.0 0.00 0.00 0.00 1 1025.8
20260902072555 0 270 4.0 7.0 0.00 0.00 0.00 1 1025.8
20260902071550 0 270 5.0 9.0 0.00 0.00 0.00 1 1025.8
20260902070604 0 270 5.0 8.0 0.00 0.00 0.00 1 1025.7
20260902065539 0 270 8.0 11.0 0.00 0.00 0.00 1 1025.7
20260902064533 0 270 3.0 8.0 0.00 0.00 0.00 1 1025.5
20260902063528 0 270 3.0 6.0 0.00 0.00 0.00 1 1025.4
20260902062523 0 270 2.0 6.0 0.00 0.00 0.00 1 1025.2
20260902061518 0 270 3.0 4.0 0.00 0.00 0.00 1 1025.1
20260902060613 0 270 2.0 4.0 0.00 0.00 0.00 1 1024.9
20260902055607 0 270 3.0 7.0 0.00 0.00 0.00 1 1024.8
20260902054602 0 270 3.0 4.0 0.00 0.00 0.00 1 1024.9
20260902053557 0 270 3.0 6.0 0.00 0.00 0.00 1 1024.8
20260902052552 0 270 3.0 6.0 0.00 0.00 0.00 1 1024.7
20260902051607 0 270 4.0 6.0 0.00 0.00 0.00 1 1024.8
20260902050542 0 270 5.0 8.0 0.00 0.00 0.00 1 1024.6
20260902045536 0 270 5.0 7.0 0.00 0.00 0.00 1 1024.5
20260902044531 0 270 4.0 7.0 0.00 0.00 0.00 1 1024.5
20260902043526 0 270 3.0 7.0 0.00 0.00 0.00 1 1024.4
20260902042522 0 270 2.0 4.0 0.00 0.00 0.00 1 1024.5
20260902041516 0 270 3.0 7.0 0.00 0.00 0.00 1 1024.4
20260902040612 0 270 4.0 6.0 0.00 0.00 0.00 1 1024.5
20260902035606 0 270 3.0 6.0 0.00 0.00 0.00 1 1024.5
20260902034601 0 270 2.0 4.0 0.00 0.00 0.00 1 1024.6
20260902033557 0 270 3.0 4.0 0.00 0.00 0.00 1 1024.4
20260902032611 0 270 2.0 4.0 0.00 0.00 0.00 1 1024.5
20260902031545 0 270 3.0 7.0 0.00 0.00 0.00 1 1024.5
20260902030540 0 270 4.0 8.0 0.00 0.00 0.00 1 1024.7
20260902025535 0 270 4.0 7.0 0.00 0.00 0.00 1 1024.7
20260902024551 0 270 3.0 6.0 0.00 0.00 0.00 1 1024.5
20260902023525 0 270 4.0 8.0 0.00 0.00 0.00 1 1024.5
20260902022519 0 270 4.0 7.0 0.00 0.00 0.00 1 1024.6
20260902021615 0 270 4.0 8.0 0.00 0.00 0.00 1 1024.6
20260902020611 0 270 3.0 6.0 0.00 0.00 0.00 1 1024.5
20260902015604 0 270 4.0 8.0 0.00 0.00 0.00 1 1024.4
20260902014559 0 270 5.0 8.0 0.00 0.00 0.00 1 1024.6
20260902013554 0 270 4.0 7.0 0.00 0.00 0.00 1 1024.6
20260902012550 0 270 4.0 8.0 0.00 0.00 0.00 1 1024.7
20260902011544 0 270 4.0 8.0 0.00 0.00 0.00 1 1024.8
20260902010539 0 270 3.0 7.0 0.00 0.00 0.00 1 1024.8
20260902005534 0 270 3.0 7.0 0.00 0.00 0.00 1 1024.8
20260902004550 0 270 4.0 9.0 0.00 0.00 0.00 1 1024.7
20260902003543 0 270 5.0 8.0 0.00 0.00 0.00 1 1024.7
20260902002517 0 270 4.0 8.0 0.00 0.00 0.00 1 1024.7
20260902001613 0 270 5.0 9.0 0.00 0.00 0.00 1 1024.6
20260902000607 0 270 6.0 8.0 0.00 0.00 0.00 1 1024.5
20260901235622 0 270 4.0 9.0 0.00 0.00 0.00 1 1024.3